FENGYUN 1C DEB

Satellite information

Favourite Embed

Satellite Type and Status

DEBRISIN ORBIT

Key statistics

Satellite FENGYUN 1C DEB at a glance.

Uptime

9615

Days in orbit

Revolutions

≈ 14.0

Per day

Orbit

SSO

Sun Synchronous Orbit

Inclination

98.7

Latest

Satellite identification and parameters

Extended collection of information and parameters for FENGYUN 1C DEB.

Object identification

Identified? True

Debris? True

Object name: FENGYUN 1C DEB

International designator: 1999-025ANC

Object number (NORAD): 30621

Object ID (CCSDS): 30621

Country: PEOPLES REPUBLIC OF CHINA (PRC)

Current information (Y/N): Y

RCS size: SMALL

Orbital parameters

Period: 102.652 minutes

Inclination: 98.6865 deg

SMA: 7262.278 km

Apoapsis: 982.785 km

Periapsis: 785.502 km

RAAN: 194.2134 deg

Eccentricy: 0.01358278

Argument of periapsis: 227.3098 deg

Mean anomaly: 289.7264 deg

Mean motion: 14.02792439 rev/day

Mean motion (dot): 0.00004783 rev/day2

B* drag term: 0.0028747846 1/REarth

Two-line elements (TLE)

Creation date: Sept. 4, 2025, 4:29 a.m.

Reference frame: TEME

Reference center: EARTH

Epoch: Sept. 3, 2025, 8:50 a.m. UTC

TLE line 0: 0 FENGYUN 1C DEB

TLE line 1: 1 30621U 99025ANC 25246.36817552 .00004783 00000-0 28748-2 0 9996

TLE line 2: 2 30621 98.6865 194.2134 0135828 227.3098 289.7264 14.02792439941821

Live tracking on map

Real-time ground track for satellite FENGYUN 1C DEB.

In-orbit conjunctions

A list of the most updated potential collisions computed for object FENGYUN 1C DEB.

Target Orbit TCA Probability of collision Miss distance Type
COSMOS 1452 LEO 2025-08-25 07:51:04 0.0002662001 137.0 (m) PAYLOAD
CZ-6A R/B LEO 2024-08-21 00:55:58 0.0001880156 973.0 (m) ROCKET BODY
COSMOS 465 LEO 2024-08-01 07:25:05 0.0001730723 274.0 (m) PAYLOAD

Associated space launch

Chinese polar orbiting meteorological satellite

FENGYUN 1C DEB was lifted into orbit during the mission ‘Long March 4B | Feng Yun 1C’, on board a Long March 4B space rocket.

The launch took place on May 10, 1999, 1:33 a.m. from Launch Complex 7.

For more information about the launch, click the button.

Launch to space Long March 4B | Feng Yun 1C
Long March 4B | Feng Yun 1C

Agency: N/A

Status: Launch Successful

Launch date: May 10, 1999, 1:33 a.m. UTC

Rocket: Long March 4B

Launch pad: Launch Complex 7

Location: Taiyuan Satellite Launch Center, People's Republic of China

...

Latest news about this satellite

There are no fresh news available about this satellite. Check back as we update our databases every day.


Newsletter sign-up

Weekly statistics, charts and insights to help you stay on top of the space industry.